This is the latest recevied weather packets stored in our database for station/object K3JSE-4. If no packets are shown the sender has not sent any weather packets the latest 10 day(s).
| Time | Temp. | Humidity | Pressure | Rain* | Wind** | Luminosity | Snow |
|---|---|---|---|---|---|---|---|
| 1777641643 | 10° C | 64% | 1015.3 hPa | 0 mm | - | - | - |
| 1777641343 | 9.44° C | 64% | 1015.1 hPa | 0 mm | - | - | - |
| 1777641043 | 8.89° C | 66% | 1015.2 hPa | 0 mm | - | - | - |
| 1777640743 | 8.89° C | 67% | 1015.1 hPa | 0 mm | - | - | - |
| 1777640443 | 8.89° C | 67% | 1015.2 hPa | 0 mm | - | - | - |
| 1777640143 | 8.33° C | 68% | 1015.2 hPa | 0 mm | - | - | - |
| 1777639844 | 8.33° C | 66% | 1015.1 hPa | 0 mm | - | - | - |
| 1777639544 | 8.33° C | 68% | 1015.2 hPa | 0 mm | - | - | - |
| 1777639244 | 8.33° C | 68% | 1015.2 hPa | 0 mm | - | - | - |
| 1777638944 | 7.78° C | 70% | 1015.2 hPa | 0 mm | - | - | - |
| 1777638644 | 7.78° C | 72% | 1015.2 hPa | 0 mm | - | - | - |
| 1777638344 | 7.78° C | 72% | 1015.1 hPa | 0 mm | - | - | - |
| 1777638044 | 7.22° C | 72% | 1015.1 hPa | 0 mm | - | - | - |
| 1777637744 | 7.22° C | 74% | 1015.1 hPa | 0 mm | - | - | - |
| 1777637444 | 7.22° C | 73% | 1015 hPa | 0 mm | - | - | - |
| 1777637144 | 6.67° C | 74% | 1015.1 hPa | 0 mm | - | - | - |
| 1777636844 | 6.67° C | 75% | 1015.2 hPa | 0 mm | - | - | - |
| 1777636544 | 6.67° C | 75% | 1015.3 hPa | 0 mm | - | - | - |
| 1777636244 | 6.67° C | 76% | 1015.3 hPa | 0 mm | - | - | - |
| 1777635944 | 6.67° C | 77% | 1015.3 hPa | 0 mm | - | - | - |
| 1777635644 | 6.11° C | 78% | 1015.3 hPa | 0 mm | - | - | - |
| 1777635344 | 6.11° C | 78% | 1015.2 hPa | 0 mm | - | - | - |
| 1777635044 | 5.56° C | 79% | 1015.1 hPa | 0 mm | - | - | - |
| 1777634744 | 5.56° C | 81% | 1015.1 hPa | 0 mm | - | - | - |
| 1777634444 | 5° C | 83% | 1015.1 hPa | 0 mm | - | - | - |
* Rain latest hour (hover to see other rain measurements)
** Current wind speed in m/s (hover to see current wind gust speed)